Regional Weather Roundup
Issued by NWS

Home | Current Version | Previous Version | Text Only | Print | Product List | Glossary On
Versions: 1 2 3 4 5 6 7 8 9 10 11 12 13 14 15 16 17 18 19 20 21 22 23 24 25 26 27
000
ASUS42 KFFC 201803
RWRGA
WEATHER ROUNDUP FOR GEORGIA
NATIONAL WEATHER SERVICE PEACHTREE CITY GA
200 PM EDT SUN APR 20 2014

NOTE: "FAIR" INDICATES FEW OR NO CLOUDS BELOW 12,000 FEET WITH NO
SIGNIFICANT WEATHER AND/OR OBSTRUCTIONS TO VISIBILITY.

* = USE WITH CAUTION. THE STATIONS MARKED WITH AN ASTERISK MAY NOT
REPORT WEATHER SUCH AS PRECIPITATION, FOG, OR THUNDER AND ARE NOT
QUALITY CONTROLLED BY NWS.

THE REMARK "TC" DENOTES TEMPERATURE READING IN DEGREES CELSIUS.

GAZ001>058-201900-
NORTH GEORGIA

CITY           SKY/WX    TMP DP  RH WIND       PRES   REMARKS
ATLANTA        MOSUNNY   69  42  37 E13G20    30.20F
6HR MIN TEMP:  53; 6HR MAX TEMP:  69;

ATHENS         SUNNY     69  39  33 E14G20    30.20F
6HR MIN TEMP:  51; 6HR MAX TEMP:  70;

CHAMBLEE       SUNNY     69  39  33 VRB3      30.20F
6HR MIN TEMP:  52; 6HR MAX TEMP:  69;

PEACHTREE CITY SUNNY     69  42  37 NE8       30.20F
6HR MIN TEMP:  52; 6HR MAX TEMP:  70;

ROME           SUNNY     73  44  35 CALM      30.19F
6HR MIN TEMP:  49; 6HR MAX TEMP:  73;

WEST ATLANTA   SUNNY     69  41  36 VRB7      30.20F
6HR MIN TEMP:  53; 6HR MAX TEMP:  70;

GAINESVILLE    SUNNY     69  38  32 NE8G18    30.22F
6HR MIN TEMP:  52; 6HR MAX TEMP:  69;

CARTERSVILLE   SUNNY     71  44  37 VRB5      30.21F
6HR MIN TEMP:  49; 6HR MAX TEMP:  71;



CITY           SKY/WX    TMP DP  RH WIND       PRES   REMARKS
DALTON*        SUNNY     72  48  43 NW6       30.20F
LAWRENCEVILLE* SUNNY     68  39  34 NE9G20    30.21F
MARIETTA       MOSUNNY   69  41  36 VRB3      30.21F
KENNESAW*      SUNNY     70  43  37 E7G14     30.21F
$$

GAZ059>098-102>109-201900-
CENTRAL GEORGIA

CITY           SKY/WX    TMP DP  RH WIND       PRES   REMARKS
AUGUSTA-BUSH   MOSUNNY   70  43  37 NE15G22   30.17F
6HR MIN TEMP:  51; 6HR MAX TEMP:  70; 6HR PCP: TRACE;

AUGUSTA-DANIEL MOSUNNY   71  41  33 N10G21    30.18F
6HR MIN TEMP:  52; 6HR MAX TEMP:  71;

COLUMBUS       CLOUDY    67  48  50 E9        30.19F
6HR MIN TEMP:  54; 6HR MAX TEMP:  67;

MACON          CLOUDY    68  46  45 NE7       30.17F
6HR MIN TEMP:  52; 6HR MAX TEMP:  68;

ROBINS AFB     CLOUDY    68  46  45 VRB6G18   30.17F


CITY           SKY/WX    TMP DP  RH WIND       PRES   REMARKS
LAGRANGE*      MOSUNNY   71  48  45 NE7       30.19F
SYLVANIA*      CLOUDY    65  52  61 NE9G24    30.15F
MILLEDGEVILLE* MOSUNNY   72  27  18 NE6       30.18F
$$

GAZ099>101-110>166-201900-
SOUTH GEORGIA

CITY           SKY/WX    TMP DP  RH WIND       PRES   REMARKS
SAVANNAH       PTSUNNY   68  54  60 N15       30.11F
6HR MIN TEMP:  53; 6HR MAX TEMP:  68; 6HR PCP: TRACE;

VALDOSTA       CLOUDY    61  52  72 N8        30.15F
6HR MIN TEMP:  57; 6HR MAX TEMP:  61;

ALMA           CLOUDY    58  51  78 VRB5      30.15F
6HR MIN TEMP:  52; 6HR MAX TEMP:  58;

ST SIMONS      LGT RAIN  58  53  84 N9        30.12F
6HR MIN TEMP:  54; 6HR MAX TEMP:  58; 6HR PCP: TRACE;

FT STEWART     CLOUDY    62  57  84 N8        30.11F
ALBANY         CLOUDY    58  51  78 NE8       30.20F
HUNTER AFB     PTSUNNY   66  55  66 VRB7      30.08F
MOODY AFB      CLOUDY    56  54  92 N12       30.15F
BRUNSWICK      CLOUDY    59  55  88 NW6       30.13F


CITY           SKY/WX    TMP DP  RH WIND       PRES   REMARKS
BAINBRIDGE*    CLOUDY    61  54  77 NE10      30.18F
MOULTRIE*      CLOUDY    55  54  94 NE7       30.18S
VIDALIA*       CLOUDY    63  54  72 NE14      30.15F
DOUGLAS*       CLOUDY    57  52  82 N12       30.17F
$$



USA.gov is the U.S. government's official web portal to all federal, state and local government web resources and services.